Погода в Гробине

Латвия     56°32′07″N   21°09′48″E
В апреле 2022 года жителям России запретили посещать сайт meteo.paraplan.net по решению Генеральной прокуратуры. Аудитория сайта уменьшилась в 10 раз. Владельцы сайта не видят смысла в поддержке погодного сервера в таких условиях. Сайт будет закрыт в октябре.
темп.,
°C
ветер,
м/с
пор.,
м/с
влажн.,
%
обл.,
%
осадки,
мм/ч
давл.,
гПа
погр.,
м
4 октября, вт
вт400:00+10ссз61275100 0.0 1008963
03:00+11ссз71377100 0.0 10081073
06:00+11ссз7148183 0.1 10081050
09:00+11ссз7127917 0.1 10091068
12:00+13ссз7116563 0.1 10101285
15:00+14сз7106887 0.1 10121339
18:00+12сз597425 0.1 1013907
21:00+9зсз248639 0.1 101470
5 октября, ср
ср500:00+10з2283100 0.0 101545
03:00+11юз3692100 0.0 1015164
06:00+12юз499498 0.1 1013363
09:00+13юз51090100 0.3 1013570
12:00+15юз61084100 0.1 1013729
15:00+15юз61079100 0.1 1014673
18:00+14юз51085100 0.0 1013519
21:00+14юз51279100 0.0 1013547
6 октября, чт
чт600:00+14юз61374100 0.0 1012607
03:00+13юз513800 0.0 1012450
06:00+13юз613850 0.0 1011447
09:00+14юз6138761 0.0 1011598
12:00+15зюз81387100 0.1 1012954
15:00+15з8127110 0.3 10141223
18:00+13зюз813790 0.1 10171061
21:00+13з814770 0.1 1019978
7 октября, пт
пт700:00+13з814780 0.0 1021872
03:00+12з813813 0.0 1022949
06:00+12зюз713837 0.0 1022801
09:00+12зюз6128526 0.1 1022913
12:00+15зюз8127822 0.3 10231153
15:00+15юз8117719 0.5 10221028
18:00+13юз612780 0.0 1021992
21:00+12ююз513817 0.0 1019656
8 октября, сб
сб800:00+13ююз6147222 0.0 1017663
03:00+12ююз6147363 0.0 1014644
06:00+12ююз61377100 0.0 1012639
09:00+13юз712765 0.0 1010988
12:00+13юз9148199 0.4 10091255
15:00+13зюз8137610 1.8 10101278
18:00+11зюз713823 1.2 10111046
21:00+11зюз713791 1.6 1011915